Change the Weather History Date:

Friday, November 1, 2013

  Actual Average Record
Temperature  
Mean Temperature 59 °F 42 °F  
Max Temperature 69 °F 52 °F 78 °F (1974)
Min Temperature 48 °F 31 °F 19 °F (1968)
Degree Days  
Heating Degree Days 6 23  
Month to date heating degree days 6 23  
Since 1 July heating degree days 775 878  
Cooling Degree Days 0 0  
Month to date cooling degree days 0 0  
Year to date cooling degree days 537 352  
Growing Degree Days 11 (Base 50)    
Moisture  
Dew Point 54 °F    
Average Humidity 66    
Maximum Humidity 97    
Minimum Humidity 35    
Precipitation  
Precipitation 0.77 in 0.11 in 1.25 in (1994)
Month to date precipitation 0.77 0.11  
Year to date precipitation 30.68 32.81  
Sea Level Pressure  
Sea Level Pressure 29.46 in    
Wind  
Wind Speed 11 mph (SSW)    
Max Wind Speed 24 mph    
Max Gust Speed 37 mph    
Visibility 6 miles    
Events Rain    
T = Trace of Precipitation, MM = Missing Value Source: NWS Daily Summary

Daily Weather History Graph

Daily Weather History Graph

Search for Another Location

Airport or City:

Trip Planner

Search our weather history database for the weather conditions in past years. The results will help you decide how hot, cold, wet, or windy it might be!

Date:

Astronomy

Nov. 01, 2013 Rise Set
Actual Time 7:29 AM EDT 5:45 PM EDT
Civil Twilight 7:00 AM EDT 6:15 PM EDT
Nautical Twilight 6:26 AM EDT 6:48 PM EDT
Astronomical Twilight 5:53 AM EDT 7:22 PM EDT
Moon 5:16 AM EDT (11/1) 4:39 PM EDT (11/1)
Length of Visible Light 11h 15m
Length of Day
10h 15m
Waning Crescent, 4% of the Moon is Illuminated
Nov 1
Waning Crescent
Nov 3
New
Nov 10
First Quarter
Nov 17
Full
Nov 25
Last Quarter

Hourly Weather History & Observations

Time (EDT) Temp. Dew Point Humidity Pressure Visibility Wind Dir Wind Speed Gust Speed Precip Events Conditions
12:10 AM 60.8 °F 57.2 °F 88% 29.63 in 3.0 mi South 13.8 mph 21.9 mph 0.02 in Rain Rain
12:39 AM 60.8 °F 57.2 °F 88% 29.60 in 4.0 mi South 9.2 mph - 0.04 in Rain Light Rain
12:53 AM 60.1 °F 57.9 °F 93% 29.61 in 4.0 mi South 10.4 mph - 0.05 in Rain Light Rain
1:53 AM 60.1 °F 57.9 °F 93% 29.56 in 3.0 mi South 8.1 mph 19.6 mph 0.10 in Rain Rain
2:53 AM 59.0 °F 57.9 °F 96% 29.53 in 5.0 mi South 13.8 mph 23.0 mph 0.07 in Rain Light Rain
3:16 AM 59.0 °F 57.2 °F 94% 29.50 in 5.0 mi South 16.1 mph 26.5 mph 0.03 in Rain Light Rain
3:23 AM 59.0 °F 57.2 °F 94% 29.49 in 5.0 mi South 16.1 mph 27.6 mph 0.04 in Rain Light Rain
3:53 AM 59.0 °F 57.9 °F 96% 29.48 in 5.0 mi South 13.8 mph 21.9 mph 0.06 in Rain Light Rain
4:12 AM 60.8 °F 57.2 °F 88% 29.47 in 6.0 mi South 16.1 mph 25.3 mph 0.02 in Rain Light Rain
4:53 AM 60.1 °F 57.9 °F 93% 29.45 in 5.0 mi South 13.8 mph 21.9 mph 0.05 in Rain Light Rain
5:53 AM 61.0 °F 59.0 °F 93% 29.42 in 4.0 mi South 11.5 mph 19.6 mph 0.08 in Rain Light Rain
6:36 AM 60.8 °F 59.0 °F 94% 29.40 in 4.0 mi South 13.8 mph - 0.06 in Rain Light Rain
6:53 AM 61.0 °F 59.0 °F 93% 29.40 in 4.0 mi South 11.5 mph - 0.08 in Rain Rain
7:06 AM 60.8 °F 60.8 °F 100% 29.39 in 4.0 mi South 13.8 mph 23.0 mph 0.02 in Rain Light Rain
7:10 AM 60.8 °F 60.8 °F 100% 29.38 in 4.0 mi South 13.8 mph 23.0 mph 0.03 in Rain Light Rain
7:17 AM 60.8 °F 60.8 °F 100% 29.38 in 6.0 mi SSW 13.8 mph 21.9 mph 0.03 in Rain Light Rain
7:53 AM 62.1 °F 60.1 °F 93% 29.37 in 9.0 mi South 12.7 mph 20.7 mph 0.03 in   Overcast
8:37 AM 62.6 °F 60.8 °F 94% 29.37 in 4.0 mi South 15.0 mph - 0.01 in Rain Light Rain
8:53 AM 63.0 °F 61.0 °F 93% 29.37 in 7.0 mi SSW 11.5 mph 20.7 mph 0.01 in Rain Light Rain
9:17 AM 62.6 °F 60.8 °F 94% 29.37 in 1.8 mi SSW 15.0 mph 23.0 mph 0.05 in Rain Rain
9:22 AM 62.6 °F 60.8 °F 94% 29.38 in 0.8 mi SSW 15.0 mph 23.0 mph 0.14 in Rain Heavy Rain
9:32 AM 62.6 °F 62.6 °F 100% 29.37 in 1.5 mi SSW 16.1 mph 24.2 mph 0.18 in Rain Rain
9:35 AM 62.6 °F 62.6 °F 100% 29.37 in 3.0 mi South 13.8 mph 23.0 mph 0.18 in Rain Light Rain
9:53 AM 64.0 °F 61.0 °F 90% 29.38 in 10.0 mi SSW 11.5 mph 21.9 mph 0.18 in Rain Light Rain
10:53 AM 62.1 °F 57.0 °F 84% 29.38 in 4.0 mi SSW 17.3 mph 27.6 mph 0.10 in Rain Rain
11:53 AM 62.1 °F 57.0 °F 84% 29.38 in 10.0 mi South 15.0 mph - 0.01 in   Partly Cloudy
12:53 PM 64.0 °F 55.9 °F 75% 29.36 in 10.0 mi SSW 13.8 mph 23.0 mph N/A   Mostly Cloudy
1:53 PM 66.9 °F 52.0 °F 59% 29.36 in 10.0 mi SW 21.9 mph 33.4 mph N/A   Partly Cloudy
2:53 PM 69.1 °F 51.1 °F 53% 29.37 in 10.0 mi SW 16.1 mph 27.6 mph N/A   Clear
3:53 PM 69.1 °F 46.9 °F 45% 29.39 in 10.0 mi SW 17.3 mph 24.2 mph N/A   Overcast
4:53 PM 68.0 °F 39.9 °F 36% 29.43 in 10.0 mi WSW 10.4 mph 21.9 mph N/A   Clear
5:53 PM 64.9 °F 37.9 °F 37% 29.48 in 10.0 mi WSW 10.4 mph 19.6 mph N/A   Clear
6:53 PM 62.1 °F 39.9 °F 44% 29.53 in 10.0 mi WNW 8.1 mph - N/A   Clear
7:53 PM 59.0 °F 42.1 °F 53% 29.59 in 10.0 mi Calm Calm - N/A   Mostly Cloudy
8:53 PM 57.0 °F 41.0 °F 55% 29.62 in 10.0 mi West 6.9 mph - N/A   Mostly Cloudy
9:53 PM 55.9 °F 39.9 °F 55% 29.64 in 10.0 mi West 6.9 mph - N/A   Clear
10:53 PM 53.1 °F 39.9 °F 61% 29.67 in 10.0 mi SW 6.9 mph - N/A   Clear
11:53 PM 50.0 °F 41.0 °F 71% 29.68 in 10.0 mi SW 4.6 mph - N/A   Clear